Home > Weather > Cascais > Past weeks

Flag for Portugal Past Weather in Cascais, Portugal — Yesterday and Last 2 Weeks

Now
66 °F

Passing clouds.


Feels Like: 66 °F
Forecast: 67 / 80 °F
Wind: 7 mph from Northwest

Location: Lisbon Portela Airport

Current Time: Aug 25, 2016 at 11:09:38 PM

Latest Report: Aug 25, 2016 at 10:30 PM


Visibility: N/A

Pressure: 29.95 "Hg

Humidity: 83%

Dew Point: 61 °F

Location of CascaisLocation

Past Weather in Cascais — Graph

°F

Cascais Temperature Yesterday

Maximum temperature yesterday: 86 °F (at 4:00 PM)
Minimum temperature yesterday: 66 °F (at 10:30 PM)
Average temperature yesterday: 74 °F

High & Low Weather Summary for the Past Weeks

 TemperatureHumidityPressure
High97 °F (Aug 12, 4:00 PM)100% (Aug 19, 7:30 AM)30.15 "Hg (Aug 19, 7:30 AM)
Low63 °F (Aug 15, 2:30 AM)14% (Aug 13, 5:30 PM)29.89 "Hg (Aug 24, 8:00 PM)
Average74 °F57%30.03 "Hg
* Reported Aug 10 10:00 PM — Aug 25 10:00 PM, Cascais, Weather by CustomWeather, © 2016

Note: Actual official high and low records may vary slightly from our data, if they occured in-between our weather recording intervals... More about our weather records

Advertising

Cascais Weather History for the Previous 24 Hours

Scroll right to see more
 ConditionsComfort  
Time TempWeatherWind HumidityBarometerVisibility
10:00 PM
Thu, Aug 25
66 °FPassing clouds.15 mph83%29.95 "HgN/A
9:30 PM68 °FPassing clouds.17 mph83%29.92 "HgN/A
9:00 PM68 °FPassing clouds.16 mph83%29.89 "HgN/A
8:30 PM68 °FPassing clouds.18 mph83%29.89 "HgN/A
8:00 PM70 °FPassing clouds.17 mph78%29.89 "HgN/A
7:30 PM72 °FPassing clouds.16 mph73%29.89 "HgN/A
7:00 PM73 °FPassing clouds.16 mph69%29.89 "HgN/A
6:30 PM79 °FPassing clouds.16 mph58%29.89 "HgN/A
6:00 PM79 °FPassing clouds.17 mph54%29.89 "HgN/A
5:30 PM81 °FPassing clouds.14 mph51%29.89 "HgN/A
5:00 PM82 °FPassing clouds.13 mph48%29.89 "HgN/A
4:30 PM84 °FPassing clouds.12 mph45%29.89 "HgN/A
4:00 PM84 °FPassing clouds.12 mph43%29.89 "HgN/A
3:30 PM86 °FPassing clouds.10 mph40%29.92 "HgN/A
3:00 PM84 °FPassing clouds.9 mph40%29.92 "HgN/A
2:30 PM86 °FPassing clouds.9 mph40%29.92 "HgN/A
2:00 PM84 °FPassing clouds.10 mph43%29.92 "HgN/A
1:30 PM82 °FPassing clouds.8 mph45%29.92 "HgN/A
1:00 PM81 °FPassing clouds.7 mph48%29.92 "HgN/A
12:30 PM81 °FPassing clouds.9 mph51%29.95 "HgN/A
12:00 PM79 °FPassing clouds.10 mph54%29.95 "HgN/A
11:30 AM77 °FPassing clouds.8 mph57%29.95 "HgN/A
11:00 AM75 °FPassing clouds.8 mph61%29.95 "HgN/A
10:30 AM73 °FPassing clouds.9 mph65%29.95 "HgN/A
10:00 AM72 °FPassing clouds.9 mph69%29.92 "HgN/A
9:30 AM68 °FPassing clouds.12 mph78%29.92 "HgN/A
9:00 AM68 °FPassing clouds.10 mph78%29.92 "HgN/A
8:30 AM66 °FPassing clouds.9 mph83%29.92 "HgN/A
8:00 AM64 °FPassing clouds.8 mph88%29.92 "HgN/A
7:30 AM64 °FPassing clouds.8 mph88%29.92 "HgN/A
7:00 AM64 °FClear.7 mph83%29.92 "Hg10 mi
6:30 AM64 °FClear.10 mph83%29.92 "Hg10 mi
6:00 AM64 °FPassing clouds.9 mph83%29.92 "HgN/A
5:30 AM64 °FClear.9 mph83%29.92 "Hg10 mi
5:00 AM64 °FClear.8 mph83%29.92 "Hg10 mi
4:30 AM64 °FClear.9 mph83%29.92 "Hg10 mi
4:00 AM64 °FClear.10 mph83%29.92 "Hg10 mi
3:30 AM64 °FClear.10 mph83%29.92 "Hg10 mi
3:00 AM64 °FClear.10 mph83%29.92 "Hg10 mi
2:30 AM64 °FPassing clouds.10 mph83%29.92 "HgN/A
2:00 AM66 °FClear.13 mph78%29.92 "Hg10 mi
1:30 AM66 °FClear.10 mph78%29.92 "Hg10 mi
1:00 AM66 °FPassing clouds.10 mph78%29.92 "HgN/A
12:30 AM66 °FPassing clouds.9 mph83%29.92 "HgN/A
12:00 AM66 °FClear.10 mph83%29.95 "Hg10 mi
11:30 PM
Wed, Aug 24
66 °FClear.10 mph83%29.92 "Hg10 mi
11:00 PM66 °FClear.12 mph83%29.95 "Hg10 mi
Weather by CustomWeather, © 2016

See weather overviewHow to use our weather pages